This is the latest recevied weather packets stored in our database for station/object NY3Q. If no packets are shown the sender has not sent any weather packets the latest 10 day(s).
| Time | Temp. | Humidity | Pressure | Rain* | Wind** | Luminosity | Snow |
|---|---|---|---|---|---|---|---|
| 1777470627 | 25.56° C | 73% | 1017.3 hPa | 0 mm | - | 344 W/m² | - |
| 1777470323 | 25.56° C | 73% | 1017.4 hPa | 0 mm | - | 258 W/m² | - |
| 1777470020 | 26.11° C | 71% | 1017.4 hPa | 0 mm | - | 161 W/m² | - |
| 1777469716 | 26.11° C | 73% | 1017.2 hPa | 0 mm | - | 230 W/m² | - |
| 1777469412 | 25.56° C | 76% | 1017.3 hPa | 0 mm | - | 345 W/m² | - |
| 1777469107 | 25° C | 79% | 1017.3 hPa | 0 mm | - | 231 W/m² | - |
| 1777468806 | 24.44° C | 80% | 1017.6 hPa | 0 mm | - | 209 W/m² | - |
| 1777468503 | 23.89° C | 81% | 1017.4 hPa | 0 mm | - | 189 W/m² | - |
| 1777468200 | 23.89° C | 83% | 1017.4 hPa | 0 mm | - | 145 W/m² | - |
| 1777467896 | 23.89° C | 84% | 1017.4 hPa | 0 mm | - | 137 W/m² | - |
| 1777467592 | 23.33° C | 85% | 1017.3 hPa | 0 mm | - | 136 W/m² | - |
| 1777467287 | 23.33° C | 87% | 1017.5 hPa | 0 mm | - | 135 W/m² | - |
| 1777466984 | 23.33° C | 89% | 1017.9 hPa | 0 mm | - | 174 W/m² | - |
| 1777466682 | 22.78° C | 90% | 1017.4 hPa | 0 mm | - | 145 W/m² | - |
| 1777466378 | 22.78° C | 91% | 1017.5 hPa | 0 mm | - | 110 W/m² | - |
| 1777466074 | 22.78° C | 92% | 1018.1 hPa | 0 mm | - | 96 W/m² | - |
| 1777465771 | 22.78° C | 92% | 1017.9 hPa | 0 mm | - | 91 W/m² | - |
| 1777465467 | 22.22° C | 93% | 1018.1 hPa | 0 mm | - | 100 W/m² | - |
| 1777465166 | 22.22° C | 94% | 1018.3 hPa | 0 mm | - | 108 W/m² | - |
| 1777464861 | 21.67° C | 95% | 1018.6 hPa | 0 mm | - | 106 W/m² | - |
| 1777464557 | 21.67° C | 95% | 1018.5 hPa | 0 mm | - | 87 W/m² | - |
| 1777464253 | 21.11° C | 96% | 1018.4 hPa | 0 mm | - | 103 W/m² | - |
| 1777463948 | 21.11° C | 96% | 1018.3 hPa | 0 mm | - | 79 W/m² | - |
| 1777463644 | 20.56° C | 96% | 1018 hPa | 0 mm | - | 70 W/m² | - |
| 1777463338 | 20° C | 96% | 1017.9 hPa | 0 mm | - | 43 W/m² | - |
* Rain latest hour (hover to see other rain measurements)
** Current wind speed in m/s (hover to see current wind gust speed)